Previsão horária em Seniv

Hoje, 25 Fevereiro, Quinta-feira

Tempo Temperatura Precipitação Vento Pressão Humidade
00:00 +4°C° 0 mm 1 m/s 745 mmHg 91%
01:00 +4°C° 0 mm 1 m/s 745 mmHg 90%
02:00 +3°C° 0 mm 2 m/s 745 mmHg 91%
03:00 +3°C° 0 mm 2 m/s 744 mmHg 89%
04:00 +4°C° 0 mm 1 m/s 744 mmHg 88%
05:00 +4°C° 0 mm 1 m/s 744 mmHg 87%
06:00 +5°C° 0 mm 1 m/s 744 mmHg 86%
07:00 +5°C° 0 mm 1 m/s 744 mmHg 85%
08:00 +5°C° 0 mm 1 m/s 744 mmHg 86%
09:00 +6°C° 0 mm 1 m/s 744 mmHg 89%
10:00 +7°C° 0 mm 1 m/s 744 mmHg 92%
11:00 +8°C° 0 mm 1 m/s 744 mmHg 96%
12:00 +9°C° 0 mm 1 m/s 744 mmHg 93%
13:00 +10°C° 0 mm 1 m/s 744 mmHg 91%
14:00 +11°C° 0 mm 1 m/s 743 mmHg 88%
15:00 +10°C° 0 mm 1 m/s 743 mmHg 87%
16:00 +10°C° 0 mm 1 m/s 743 mmHg 87%
17:00 +9°C° 0 mm 1 m/s 742 mmHg 86%
18:00 +8°C° 0 mm 1 m/s 742 mmHg 85%
19:00 +8°C° 0 mm 1 m/s 742 mmHg 85%
20:00 +7°C° 0 mm 1 m/s 742 mmHg 84%
21:00 +6°C° 0 mm 2 m/s 742 mmHg 83%
22:00 +5°C° 0 mm 2 m/s 742 mmHg 82%
23:00 +5°C° 0 mm 2 m/s 742 mmHg 81%

Amanhã, 26 Fevereiro, Sexta-feira

Tempo Temperatura Precipitação Vento Pressão Humidade
00:00 +5°C° 0 mm 2 m/s 742 mmHg 80%
01:00 +4°C° 0 mm 2 m/s 741 mmHg 80%
02:00 +4°C° 0 mm 2 m/s 741 mmHg 79%
03:00 +4°C° 0 mm 2 m/s 741 mmHg 80%
04:00 +4°C° 0 mm 2 m/s 740 mmHg 80%
05:00 +4°C° 0 mm 2 m/s 740 mmHg 80%
06:00 +4°C° 0 mm 2 m/s 740 mmHg 81%
07:00 +4°C° 0 mm 2 m/s 740 mmHg 82%
08:00 +4°C° 0 mm 2 m/s 740 mmHg 83%
09:00 +4°C° 0 mm 3 m/s 740 mmHg 80%
10:00 +7°C° 0 mm 3 m/s 740 mmHg 77%
11:00 +8°C° 0 mm 4 m/s 740 mmHg 73%
12:00 +10°C° 0 mm 4 m/s 739 mmHg 72%
13:00 +11°C° 0 mm 4 m/s 739 mmHg 70%
14:00 +12°C° 0 mm 5 m/s 739 mmHg 68%
15:00 +11°C° 0 mm 4 m/s 738 mmHg 72%
16:00 +11°C° 0 mm 4 m/s 738 mmHg 76%
17:00 +10°C° 0 mm 3 m/s 737 mmHg 80%
18:00 +9°C° 0 mm 3 m/s 738 mmHg 83%
19:00 +8°C° 0 mm 3 m/s 738 mmHg 86%
20:00 +8°C° 0 mm 3 m/s 738 mmHg 89%
21:00 +6°C° 0.4 mm 4 m/s 738 mmHg 88%
22:00 +6°C° 0.4 mm 4 m/s 738 mmHg 87%
23:00 +5°C° 0.4 mm 5 m/s 737 mmHg 86%

Depois de amanhã, 27 Fevereiro, Sábado

Tempo Temperatura Precipitação Vento Pressão Humidade
00:00 +3°C° 0 mm 5 m/s 738 mmHg 86%
01:00 +3°C° 0 mm 5 m/s 738 mmHg 85%
02:00 +3°C° 0 mm 5 m/s 738 mmHg 85%
03:00 +2°C° 0 mm 5 m/s 738 mmHg 85%
04:00 +2°C° 0 mm 5 m/s 737 mmHg 85%
05:00 +2°C° 0 mm 5 m/s 737 mmHg 85%
06:00 +1°C° 0 mm 5 m/s 737 mmHg 85%
07:00 +1°C° 0 mm 6 m/s 737 mmHg 86%
08:00 +1°C° 0 mm 6 m/s 737 mmHg 86%
09:00 0°C° 0 mm 7 m/s 737 mmHg 86%
10:00 0°C° 0 mm 7 m/s 737 mmHg 85%
11:00 0°C° 0 mm 7 m/s 737 mmHg 84%
12:00 0°C° 0.1 mm 7 m/s 737 mmHg 85%
13:00 0°C° 0.1 mm 8 m/s 737 mmHg 86%
14:00 0°C° 0.1 mm 8 m/s 738 mmHg 87%
15:00 0°C° 0.1 mm 8 m/s 738 mmHg 83%
16:00 0°C° 0.1 mm 7 m/s 738 mmHg 79%
17:00 +2°C° 0.1 mm 7 m/s 738 mmHg 75%
18:00 0°C° 0 mm 7 m/s 738 mmHg 76%
19:00 0°C° 0 mm 7 m/s 739 mmHg 78%
20:00 -1°C° 0 mm 7 m/s 739 mmHg 79%
21:00 -1°C° 0 mm 6 m/s 739 mmHg 82%
22:00 -1°C° 0 mm 6 m/s 739 mmHg 84%
23:00 -1°C° 0 mm 6 m/s 740 mmHg 87%

28 Fevereiro, Domingo

Tempo Temperatura Precipitação Vento Pressão Humidade
00:00 -1°C° 0 mm 5 m/s 740 mmHg 87%
01:00 -1°C° 0 mm 5 m/s 740 mmHg 88%
02:00 -2°C° 0 mm 5 m/s 741 mmHg 89%
03:00 -2°C° 0 mm 5 m/s 741 mmHg 89%
04:00 -2°C° 0 mm 5 m/s 741 mmHg 89%
05:00 -2°C° 0 mm 5 m/s 741 mmHg 89%
06:00 -2°C° 0 mm 5 m/s 741 mmHg 90%
07:00 -2°C° 0 mm 4 m/s 742 mmHg 90%
08:00 -2°C° 0 mm 4 m/s 742 mmHg 91%
09:00 -2°C° 0.1 mm 4 m/s 742 mmHg 88%
10:00 -2°C° 0.1 mm 5 m/s 742 mmHg 86%
11:00 -2°C° 0.1 mm 5 m/s 742 mmHg 83%
12:00 -1°C° 0 mm 5 m/s 742 mmHg 81%
13:00 -1°C° 0 mm 5 m/s 742 mmHg 78%
14:00 -1°C° 0 mm 5 m/s 743 mmHg 76%
15:00 -1°C° 0 mm 5 m/s 742 mmHg 75%
16:00 -1°C° 0 mm 5 m/s 742 mmHg 75%
17:00 -1°C° 0 mm 4 m/s 742 mmHg 74%
18:00 -1°C° 0 mm 4 m/s 742 mmHg 77%
19:00 -1°C° 0 mm 3 m/s 743 mmHg 80%
20:00 -1°C° 0 mm 2 m/s 743 mmHg 83%
21:00 -1°C° 0 mm 2 m/s 743 mmHg 83%
22:00 -1°C° 0 mm 2 m/s 743 mmHg 84%
23:00 -1°C° 0 mm 2 m/s 744 mmHg 85%

1 Março, Segunda-feira

Tempo Temperatura Precipitação Vento Pressão Humidade
00:00 -2°C° 0 mm 2 m/s 744 mmHg 86%
01:00 -2°C° 0 mm 2 m/s 744 mmHg 86%
02:00 -2°C° 0 mm 2 m/s 744 mmHg 87%
03:00 -2°C° 0 mm 2 m/s 744 mmHg 88%
04:00 -2°C° 0 mm 2 m/s 744 mmHg 89%
05:00 0°C° 0 mm 1 m/s 744 mmHg 90%
06:00 0°C° 0 mm 1 m/s 745 mmHg 91%
07:00 0°C° 0 mm 1 m/s 745 mmHg 92%
08:00 0°C° 0 mm 1 m/s 745 mmHg 92%
09:00 -1°C° 0 mm 2 m/s 746 mmHg 88%
10:00 +1°C° 0 mm 2 m/s 746 mmHg 83%
11:00 +2°C° 0 mm 2 m/s 746 mmHg 79%
12:00 +3°C° 0 mm 2 m/s 747 mmHg 76%
13:00 +3°C° 0 mm 2 m/s 747 mmHg 73%
14:00 +4°C° 0 mm 1 m/s 747 mmHg 70%
15:00 +4°C° 0 mm 1 m/s 747 mmHg 72%
16:00 +4°C° 0 mm 1 m/s 747 mmHg 73%
17:00 +4°C° 0 mm 1 m/s 746 mmHg 74%
18:00 +3°C° 0 mm 1 m/s 747 mmHg 76%
19:00 +2°C° 0 mm 0 m/s 747 mmHg 77%
20:00 +2°C° 0 mm 0 m/s 747 mmHg 79%
21:00 +2°C° 0 mm 1 m/s 747 mmHg 81%
22:00 +2°C° 0 mm 1 m/s 748 mmHg 83%
23:00 +2°C° 0 mm 1 m/s 748 mmHg 84%

2 Março, Terça-feira

Tempo Temperatura Precipitação Vento Pressão Humidade
00:00 +1°C° 0 mm 1 m/s 748 mmHg 86%
01:00 +1°C° 0 mm 1 m/s 747 mmHg 87%
02:00 +1°C° 0 mm 1 m/s 747 mmHg 89%
03:00 0°C° 0 mm 1 m/s 747 mmHg 90%
04:00 0°C° 0 mm 1 m/s 747 mmHg 91%
05:00 0°C° 0 mm 1 m/s 747 mmHg 92%
06:00 0°C° 0 mm 1 m/s 747 mmHg 91%
07:00 0°C° 0 mm 1 m/s 746 mmHg 91%
08:00 -2°C° 0 mm 2 m/s 746 mmHg 90%
09:00 +1°C° 0 mm 2 m/s 746 mmHg 82%
10:00 +2°C° 0 mm 2 m/s 746 mmHg 75%
11:00 +3°C° 0 mm 3 m/s 746 mmHg 67%
12:00 +4°C° 0 mm 3 m/s 746 mmHg 64%
13:00 +5°C° 0 mm 3 m/s 746 mmHg 61%
14:00 +7°C° 0 mm 3 m/s 746 mmHg 58%
15:00 +7°C° 0 mm 3 m/s 745 mmHg 61%
16:00 +5°C° 0 mm 3 m/s 745 mmHg 63%
17:00 +6°C° 0 mm 2 m/s 745 mmHg 66%
18:00 +5°C° 0 mm 2 m/s 745 mmHg 70%
19:00 +4°C° 0 mm 2 m/s 745 mmHg 74%
20:00 +2°C° 0 mm 2 m/s 745 mmHg 78%
21:00 +2°C° 0 mm 2 m/s 745 mmHg 79%
22:00 +2°C° 0 mm 2 m/s 745 mmHg 80%
23:00 +1°C° 0 mm 2 m/s 745 mmHg 82%
Mostrar mais

Necessitamos do seu Consentimento

A Meteoprog e os seus Fornecedores de Serviços podem armazenar e aceder a dados pessoais como cookies, identificadores do dispositivo ou outras tecnologias semelhantes existentes no seu dispositivo e processar estes dados para personalizar conteúdos e anúncios, assim como funcionalidades nas redes sociais e análise de tráfego.

  • Armazenar e/ou aceder a informações no seu dispositivo

    Os cookies, identificadores do dispositivo ou outras informações podem ser armazenados ou acedidos no seu dispositivo, para os fins acima indicados.

  • Anúncios e conteúdos personalizados, medição de anúncios e conteúdos, dados sobre o público-alvo e desenvolvimento de produtos

    Os anúncios e os conteúdos podem ser personalizados com base num perfil. Podem ser adicionados dados adicionais para uma maior personalização dos anúncios e dos conteúdos. A eficácia dos anúncios e dos conteúdos pode ser medida. Podem ser obtidas informações sobre o público que visualizou os anúncios e os conteúdos. Estes dados podem ser usados para desenvolver ou melhorar sistemas, softwares ou a experiência do utilizador.

Ao clicar em "Eu concordo”, permitirá o uso de cookies, identificadores do dispositivo e web beacons mencionados ou outras tecnologias semelhantes. As configurações do navegador do seu dispositivo podem ser alteradas.

Para certos fins, podem ser invocados interesses legítimos ao invés de consentimento. Pode ler mais informação sobre este assunto na nossa Política de Privacidade e Cookies.